Terug naar catalogus

FENGYUN 1C DEB

ActiefSSO
NORAD 36152·DEBRIS·🇨🇳 China

Gelanceerd May 10, 1999 vanaf Taiyuan Satellite Launch Center

Loading…

Volgende Passages (komende 24 uur)

TLE

VersSource: Space-Track

Epoch: Sep 14, 2026, 21:54 UTC

1 36152U 99025DRZ 26257.91298116  .00001180  00000-0  58505-3 0  9997
2 36152  98.7366 298.4968 0055928 140.2623 220.2670 14.18259010680702

Volg FENGYUN 1C DEB in realtime met AllMySat

Download on the App Store